STARLINK-35749

Last updated on Fri Dec 19 2025 00:02:08 GMT+0000 (Coordinated Universal Time)

1 66879U 25283B 25352.58336806 -.01274606 00000+0 -79397-2 0 9996 2 66879 53.1553 44.4409 0001386 60.7131 61.4832 15.79110015 3367
UTC large
Height (km)
Speed (km/s)
/
Latitude / Longitude
Inclination (degrees)
Orbital Period (minutes)
Azimuth
Elevation
Range (km)
Doppler Factor

Next 0 passes for location: London (51.5072 / 0.1276)

Sorry there are no passes over London.